Temperature
18 18 18 18 18 18 17 17 18 18 18 18 18 18 18 18 18 18 18 18 18 18 18 18 18 18 18 18 18 18 18 18 18 18 18 18 18 18 18 18 18 18 18
18 18 18 18 18 17 17 17 17 18 18 18 18 18 18 18 18 18 18 18 18 18 18 18 18 18 18 18 18 18 18 18 18 18 18 18 18 18 18 18 18 18 18
18 18 18 18 18 17 17 17 17 17 17 18 18 18 18 18 18 18 18 18 18 18 18 18 18 18 18 18 18 18 18 18 18 18 18 18 18 18 18 18 18 18 18
18 17 18 17 17 17 17 17 17 17 17 17 17 17 17 17 17 17 17 18 18 17 18 18 18 18 18 18 18 18 18 18 18 18 17 17 18 18 18 18 18 18 18
18 18 18 17 17 17 17 17 17 17 17 17 17 17 17 17 17 17 17 17 17 17 17 17 17 18 18 18 18 18 18 18 18 17 17 17 17 17 18 18 18 18 18
18 18 18 18 17 17 17 17 17 17 17 17 17 17 17 17 17 17 17 17 17 17 17 17 17 17 17 17 17 17 17 17 17 17 17 17 17 17 17 18 18 18 18
18 18 18 18 17 17 17 17 17 17 17 17 17 17 17 17 17 17 17 17 17 17 17 17 17 17 17 17 17 17 17 17 17 17 17 17 17 17 17 17 17 17 17
18 18 18 18 17 17 17 17 17 17 17 17 17 17 17 17 17 17 17 17 17 17 17 17 17 17 17 17 17 17 17 17 17 17 17 17 17 17 17 17 17 17 17
18 18 18 18 17 17 17 17 17 17 17 17 17 17 17 17 17 17 17 17 17 17 17 17 17 17 17 17 17 17 17 17 17 16 16 17 17 17 17 17 17 17 17
18 18 18 18 17 17 17 17 17 17 17 17 17 17 17 17 17 17 17 17 17 17 17 17 17 17 17 17 17 16 16 16 16 16 16 16 16 17 17 17 17 17 17
18 18 18 18 17 17 17 17 17 17 17 17 17 17 17 17 17 17 17 17 17 17 17 17 17 16 16 16 16 16 16 16 16 16 16 16 16 16 16 16 16 16 16
18 18 18 18 18 17 17 17 17 17 17 17 17 17 17 17 16 16 16 17 17 16 16 16 16 16 16 16 16 16 16 16 16 16 16 16 16 16 16 16 16 16 16
19 18 18 18 18 18 17 17 17 17 17 17 17 17 17 17 16 16 16 16 16 16 16 16 16 16 16 16 16 16 16 16 16 16 16 16 16 16 16 16 16 16 16
19 19 18 18 18 18 18 17 17 17 17 17 17 17 17 16 16 16 16 16 16 16 16 16 16 16 16 16 16 16 16 16 16 16 16 16 16 16 16 16 16 15 15
19 19 18 18 18 18 18 17 17 17 17 17 17 17 17 16 16 16 16 16 16 16 16 16 16 16 16 16 15 15 15 15 15 16 15 15 16 16 16 15 15 15 15
19 19 18 18 18 18 18 17 17 17 17 17 17 16 16 16 16 16 16 16 16 16 16 16 16 16 15 15 15 15 15 15 15 15 15 15 15 15 15 15 15 15 15
20 19 19 18 18 18 17 17 17 17 17 16 16 16 16 16 16 16 16 16 16 16 16 15 15 15 15 15 15 15 15 15 15 15 15 15 15 15 15 15 15 15 15
20 19 19 18 18 18 17 17 17 17 17 16 16 16 16 16 16 16 16 16 16 15 15 15 15 15 15 15 15 15 15 15 15 15 15 15 15 15 15 15 15 15 15
20 19 19 18 18 18 17 17 17 17 16 16 16 16 16 16 16 16 16 15 15 15 15 15 15 15 15 15 15 15 15 15 15 15 15 15 15 15 15 15 15 15 15
20 20 19 18 18 18 17 17 17 16 16 16 16 16 16 16 16 16 15 15 15 15 15 15 15 15 15 15 15 15 15 15 15 14 14 14 14 14 14 14 14 14 14
20 20 19 18 18 18 17 17 16 16 16 16 16 16 16 15 15 15 15 15 15 15 15 15 15 15 15 15 15 14 14 14 15 14 14 14 14 14 14 14 14 14 14
20 19 19 19 18 18 17 17 16 16 16 16 16 15 15 15 15 15 15 15 15 15 14 14 14 14 14 14 15 15 14 14 14 14 14 14 14 14 14 14 14 14 14
20 19 19 19 18 18 17 17 16 16 16 16 15 15 15 15 15 15 15 15 15 15 14 14 14 14 14 14 14 14 14 14 14 14 14 14 14 14 14 14 13 13 13
20 19 19 18 18 17 17 17 16 16 16 16 15 15 15 15 15 15 15 15 14 14 14 14 14 14 14 14 14 14 14 15 14 14 14 14 14 14 14 13 13 13 13
19 19 19 18 18 17 17 17 16 16 16 16 15 15 15 15 15 15 15 14 14 14 14 14 14 14 14 14 14 14 14 14 15 14 13 13 13 13 13 13 13 13 13
19 19 18 18 18 17 17 16 16 16 16 16 15 15 15 15 15 15 15 14 14 14 14 14 14 14 14 14 14 14 14 14 14 14 14 13 13 13 13 13 13 13 13
Wind_Speed
7 10 9 9 9 9 9 10 9 8 8 8 8 9 9 10 9 9 9 9 9 10 10 10 10 11 11 11 11 11 11 10 10 10 10 10 9 9 9 8 9 9 10
9 12 10 9 9 9 9 10 9 9 8 8 9 9 10 9 9 9 9 9 9 9 10 11 11 11 11 10 10 10 9 9 9 8 9 9 9 9 9 9 9 8 9
10 11 11 9 9 9 9 9 9 9 8 8 9 9 9 8 9 9 9 9 9 10 10 10 11 11 11 10 10 9 8 8 7 6 7 7 8 9 9 9 9 9 8
10 12 11 9 9 9 9 9 9 9 8 8 9 9 9 8 8 9 9 10 10 10 10 10 10 10 10 10 9 9 8 8 7 6 5 7 8 10 9 9 9 8 8
11 13 12 10 9 9 9 9 9 10 9 9 9 9 9 9 10 9 9 10 10 10 11 11 11 10 10 10 9 8 8 8 7 6 7 10 10 11 10 10 9 8 7
10 13 12 10 9 9 10 10 10 10 9 9 9 9 9 9 10 10 10 11 11 11 11 11 11 11 10 10 9 9 9 8 7 7 9 10 10 11 10 10 9 8 7
10 12 12 11 10 10 10 10 10 10 10 10 10 10 10 10 10 11 11 11 11 11 11 11 10 11 10 10 9 8 8 7 6 8 8 9 10 11 10 9 8 8 7
9 11 12 11 11 11 10 10 10 10 10 10 10 10 10 10 10 11 11 11 11 10 10 10 10 10 10 9 9 8 8 7 8 9 9 10 12 12 11 10 8 8 8
7 9 10 11 11 10 10 10 9 8 8 8 9 9 9 10 10 10 10 10 11 10 10 9 9 9 8 8 8 7 9 10 8 7 9 10 12 12 11 11 10 10 10
6 6 7 8 10 10 9 9 8 7 6 6 6 7 9 9 9 9 10 10 10 10 10 9 8 8 7 6 6 7 8 9 9 8 9 10 12 12 12 11 11 11 10
5 4 5 5 7 8 9 9 8 7 5 5 5 5 6 6 8 8 9 10 10 10 9 9 8 7 6 5 4 6 7 7 9 9 9 11 12 12 11 11 11 10 10
4 4 4 5 5 6 6 7 5 6 5 4 5 6 5 6 7 9 10 10 9 9 8 7 6 4 2 3 3 5 6 7 8 8 10 13 12 12 12 11 11 11 10
5 4 3 4 5 5 4 5 3 4 4 3 4 7 6 6 6 7 6 7 7 6 5 6 4 3 4 5 5 6 7 9 9 9 11 13 13 13 12 12 12 11 11
6 5 4 4 4 5 5 4 3 2 3 3 4 7 6 3 3 3 3 3 4 4 3 4 3 4 5 7 7 7 8 8 8 9 11 13 13 13 13 13 12 12 11
7 5 4 4 4 4 4 2 4 3 2 4 4 5 6 3 3 3 3 3 4 4 4 3 4 5 5 7 8 7 6 8 9 9 10 13 12 12 12 12 12 11 11
7 6 5 4 4 4 4 3 3 3 3 4 3 3 7 5 3 3 3 3 3 4 4 4 5 5 5 5 6 6 6 7 8 9 9 10 11 11 11 11 11 11 11
7 7 6 5 4 5 5 4 4 3 4 3 3 4 6 6 4 4 3 2 3 4 4 4 5 5 4 4 4 4 5 5 6 7 7 8 9 10 11 11 10 10 10
6 7 6 5 6 5 5 4 3 4 4 3 3 4 5 7 6 4 3 2 4 4 3 3 4 4 4 4 3 3 3 3 4 6 6 7 7 8 9 10 9 10 9
6 7 7 6 5 6 5 4 3 4 3 3 4 4 4 6 6 5 2 2 4 3 2 3 3 4 4 3 3 3 2 2 2 4 4 6 7 8 8 8 9 9 9
6 6 8 7 5 6 4 4 3 3 2 3 3 3 4 5 7 4 2 3 4 3 3 3 3 3 3 2 3 3 2 2 2 2 3 4 5 7 7 8 8 8 9
5 5 7 7 5 5 4 3 3 3 2 2 2 4 4 3 5 4 3 3 3 2 2 3 3 3 2 2 2 2 1 1 2 1 2 2 3 5 5 6 7 7 7
6 5 6 6 5 6 4 3 3 3 2 3 2 3 3 3 4 4 3 3 3 2 3 3 3 2 1 1 1 2 1 1 2 1 1 2 2 3 3 4 6 7 7
6 6 5 6 6 6 5 3 3 3 2 3 2 2 1 3 3 3 3 3 3 3 2 2 2 2 1 1 1 1 2 1 0 1 1 1 2 1 1 2 5 6 7
5 5 5 5 6 6 6 4 4 4 3 3 3 3 2 3 3 3 2 2 2 3 3 2 2 1 1 0 1 1 0 2 2 1 1 1 1 2 1 2 3 6 7
6 5 4 4 5 5 5 5 3 3 3 3 3 5 3 3 3 3 2 2 2 2 3 2 2 1 1 1 0 1 1 0 1 2 1 1 0 0 1 2 2 4 6
5 5 4 4 5 5 5 5 5 4 4 3 4 4 3 3 2 3 3 2 2 2 2 2 2 1 1 1 1 0 0 0 0 1 1 2 1 1 1 1 2 2 4
Wind_Direction
90 92 84 70 60 54 51 49 50 54 55 55 58 66 69 70 71 70 70 72 74 73 71 74 77 78 77 76 75 78 82 87 91 94 95 94 93 90 89 89 92 92 94
93 95 87 75 66 60 56 54 54 56 59 64 67 70 70 71 72 72 74 77 77 77 77 76 77 78 79 79 80 80 80 83 90 96 99 97 95 92 88 82 85 93 90
94 99 91 79 72 64 57 55 55 58 63 68 70 69 69 71 73 75 76 78 78 80 80 79 78 78 80 81 82 82 79 80 88 91 97 104 99 92 87 84 87 92 93
93 93 90 85 75 66 59 58 59 62 68 72 73 72 71 72 75 79 80 80 80 82 82 79 77 75 77 80 82 81 75 73 76 75 72 86 93 92 89 86 86 86 89
90 92 92 88 79 70 64 61 61 64 71 77 80 76 72 74 76 76 82 86 85 84 82 79 76 73 75 77 79 78 74 73 66 64 69 76 83 89 88 87 84 83 83
98 100 100 95 88 79 72 67 64 64 74 83 85 84 79 80 80 78 81 86 85 83 83 79 75 74 73 74 76 73 70 68 60 69 75 78 84 86 87 87 87 86 85
103 106 108 103 97 88 79 73 69 67 74 84 88 87 84 84 84 83 84 87 87 85 84 80 76 74 70 69 71 71 71 69 64 70 76 83 88 86 85 86 88 90 88
105 109 115 115 107 96 87 80 76 72 75 82 88 90 90 88 87 87 86 90 89 90 90 85 79 75 73 70 69 64 58 56 71 76 75 80 88 85 85 85 86 87 87
98 113 125 130 123 111 100 93 88 82 83 85 89 94 95 95 95 93 90 94 96 95 96 93 87 80 75 73 68 63 55 56 56 63 76 78 81 80 81 82 82 83 81
103 110 122 132 133 133 126 116 111 106 103 103 106 105 108 109 105 101 97 98 103 102 101 98 97 96 88 80 71 66 60 58 59 61 70 80 82 81 80 81 81 79 77
109 112 123 125 127 129 132 131 140 139 139 134 135 129 130 124 117 114 107 107 110 112 110 108 110 109 103 87 80 79 74 79 71 67 69 83 82 80 81 83 81 80 79
128 126 121 126 122 121 115 128 140 139 148 158 146 140 132 109 102 108 117 119 123 127 126 124 127 131 117 99 88 91 81 82 78 74 73 80 81 80 82 83 80 79 79
128 113 104 107 107 109 103 107 102 111 124 122 104 111 100 102 110 114 124 133 136 140 139 141 154 124 86 80 84 89 81 77 76 71 72 79 79 81 83 83 80 79 79
116 108 92 92 99 99 97 99 103 91 91 86 85 93 93 88 93 101 96 97 108 100 92 99 104 88 76 75 75 74 72 83 85 81 77 80 80 80 80 80 79 78 77
120 121 108 92 85 96 96 101 98 82 79 94 88 102 104 91 87 87 87 85 88 92 91 85 80 70 61 58 64 66 68 81 88 85 83 83 82 81 81 80 77 75 73
135 133 117 109 102 102 107 103 95 98 92 80 75 90 100 95 89 85 81 74 76 88 98 100 98 87 75 69 60 56 57 72 93 98 93 86 83 82 80 79 78 75 73
139 135 127 126 105 90 87 90 96 88 88 73 62 75 95 103 95 91 91 87 85 82 86 89 89 95 97 89 78 62 55 63 82 91 100 101 91 83 82 78 76 76 75
139 135 135 131 115 102 94 89 92 84 76 75 61 60 82 91 90 85 88 84 94 84 81 88 98 91 84 80 75 66 62 60 74 90 93 97 99 93 87 82 79 76 75
141 135 130 121 120 114 108 105 86 92 88 80 68 53 72 90 94 86 89 102 100 88 82 90 84 96 96 89 84 72 64 58 65 83 90 96 105 111 105 95 86 79 75
138 139 135 131 135 121 116 108 93 87 93 84 77 64 65 82 96 96 92 87 86 81 76 84 88 85 102 115 98 80 63 55 52 58 72 77 85 98 107 106 100 86 77
143 140 134 141 148 130 123 120 120 117 113 100 97 89 80 76 96 98 88 82 82 93 101 106 105 101 90 109 103 84 31 57 81 71 76 76 79 88 98 111 117 109 91
155 151 147 147 149 136 135 137 139 132 134 121 109 104 109 91 89 104 107 103 93 85 80 88 93 108 145 175 134 128 105 13 0 91 100 117 106 86 79 101 107 110 111
157 157 156 155 148 138 141 132 124 111 131 119 120 118 130 105 95 90 99 117 131 124 113 114 128 116 168 283 10 122 144 173 208 9 56 82 97 101 79 78 96 101 110
155 155 157 157 148 141 139 143 147 158 168 157 150 153 160 125 116 111 105 119 129 124 136 173 135 139 128 229 313 324 177 138 144 170 335 42 77 99 112 75 76 89 96
151 148 147 143 139 141 141 149 168 170 162 152 144 152 160 155 156 157 156 156 153 149 161 150 130 161 158 183 212 312 349 354 192 151 181 235 21 63 99 92 80 88 105
140 144 147 148 143 140 147 162 183 178 164 157 154 154 161 162 169 170 162 153 145 150 150 149 149 158 179 198 218 218 253 265 254 138 173 191 183 217 143 104 111 112 112
Height
1513 1511 1511 1510 1510 1509 1509 1509 1509 1509 1510 1510 1510 1511 1511 1512 1512 1513 1513 1513 1514 1515 1515 1516 1516 1517 1517 1518 1519 1520 1521 1522 1523 1524 1525 1526 1526 1527 1528 1529 1530 1530 1531
1514 1512 1511 1511 1510 1510 1510 1510 1510 1510 1510 1511 1511 1512 1512 1513 1513 1514 1514 1515 1515 1516 1516 1517 1518 1518 1519 1520 1520 1521 1522 1523 1524 1525 1526 1527 1528 1528 1529 1530 1531 1531 1532
1514 1513 1512 1512 1511 1511 1511 1511 1511 1511 1511 1511 1511 1512 1513 1513 1514 1515 1515 1516 1517 1517 1518 1519 1519 1520 1520 1521 1522 1523 1523 1524 1525 1526 1527 1528 1529 1529 1530 1530 1531 1532 1532
1515 1514 1513 1513 1513 1512 1512 1512 1511 1510 1510 1511 1512 1513 1514 1514 1515 1516 1517 1517 1518 1518 1519 1520 1521 1522 1522 1522 1523 1524 1525 1526 1527 1528 1528 1529 1529 1530 1531 1531 1532 1533 1533
1516 1515 1515 1514 1514 1513 1513 1512 1511 1510 1510 1511 1512 1514 1515 1515 1516 1517 1518 1518 1519 1519 1521 1521 1522 1523 1523 1524 1525 1526 1526 1527 1528 1529 1529 1530 1530 1531 1531 1532 1532 1533 1533
1517 1516 1516 1516 1515 1515 1514 1514 1512 1511 1510 1511 1513 1515 1516 1517 1517 1518 1519 1519 1520 1521 1522 1522 1523 1524 1525 1525 1526 1527 1528 1529 1529 1530 1531 1531 1531 1532 1532 1532 1533 1533 1534
1518 1518 1517 1517 1517 1516 1516 1515 1514 1513 1512 1513 1514 1516 1517 1518 1519 1520 1520 1521 1521 1522 1523 1524 1525 1526 1526 1527 1528 1529 1530 1530 1531 1531 1532 1532 1532 1532 1532 1532 1533 1533 1534
1519 1519 1519 1519 1518 1518 1517 1517 1516 1516 1515 1516 1517 1518 1519 1520 1521 1521 1522 1522 1523 1524 1524 1525 1526 1527 1528 1529 1530 1530 1531 1532 1532 1533 1533 1533 1533 1533 1533 1533 1533 1534 1535
1521 1520 1520 1520 1520 1520 1519 1519 1518 1518 1518 1519 1519 1520 1521 1522 1522 1523 1523 1524 1524 1525 1526 1527 1528 1529 1529 1530 1531 1532 1532 1533 1533 1533 1534 1534 1534 1534 1533 1534 1534 1535 1535
1522 1522 1522 1522 1521 1521 1521 1521 1521 1520 1521 1521 1522 1523 1523 1524 1524 1525 1525 1526 1526 1527 1528 1529 1529 1530 1531 1532 1533 1533 1534 1534 1534 1534 1535 1535 1535 1535 1535 1535 1535 1536 1536
1523 1523 1523 1523 1523 1523 1523 1523 1523 1523 1523 1523 1524 1525 1525 1525 1526 1526 1527 1527 1528 1528 1529 1530 1531 1532 1533 1534 1535 1535 1535 1535 1535 1536 1536 1536 1536 1536 1536 1536 1536 1536 1537
1523 1524 1524 1524 1525 1525 1525 1524 1524 1524 1525 1525 1525 1526 1527 1527 1528 1528 1529 1529 1529 1530 1531 1532 1533 1533 1534 1535 1536 1536 1537 1537 1537 1537 1537 1538 1537 1537 1537 1537 1537 1537 1537
1524 1524 1525 1525 1526 1526 1526 1526 1526 1526 1526 1527 1527 1528 1528 1529 1529 1530 1530 1530 1531 1532 1532 1533 1534 1535 1536 1536 1537 1538 1538 1538 1538 1538 1539 1539 1538 1538 1538 1538 1538 1538 1539
1524 1525 1526 1526 1526 1526 1527 1527 1527 1527 1527 1528 1529 1529 1530 1530 1530 1531 1531 1532 1533 1533 1534 1535 1535 1536 1537 1538 1538 1539 1539 1539 1540 1540 1540 1540 1540 1540 1539 1539 1539 1539 1540
1524 1525 1526 1526 1527 1527 1527 1527 1528 1528 1528 1529 1530 1530 1531 1531 1532 1532 1532 1533 1534 1534 1535 1535 1536 1537 1538 1538 1539 1540 1541 1541 1541 1541 1541 1541 1541 1541 1541 1540 1540 1540 1540
1523 1525 1526 1527 1527 1527 1527 1528 1528 1529 1529 1530 1530 1531 1532 1532 1532 1533 1533 1534 1535 1535 1536 1537 1537 1538 1539 1539 1540 1541 1541 1542 1542 1542 1542 1542 1542 1542 1542 1541 1541 1541 1541
1523 1524 1525 1526 1527 1527 1528 1528 1529 1529 1530 1530 1531 1532 1532 1532 1533 1534 1534 1535 1536 1536 1537 1537 1538 1539 1539 1540 1541 1541 1542 1543 1543 1543 1543 1543 1543 1543 1543 1542 1542 1542 1542
1522 1524 1525 1526 1527 1527 1528 1528 1529 1529 1530 1531 1531 1532 1532 1533 1533 1534 1534 1535 1536 1537 1537 1538 1539 1540 1540 1541 1542 1542 1543 1543 1544 1544 1544 1544 1544 1544 1543 1543 1543 1543 1542
1521 1523 1524 1525 1527 1527 1528 1529 1529 1530 1530 1531 1531 1532 1532 1533 1533 1534 1535 1535 1536 1537 1538 1539 1539 1540 1541 1541 1542 1543 1544 1544 1544 1545 1545 1545 1545 1544 1544 1544 1544 1543 1543
1520 1522 1523 1525 1526 1527 1528 1529 1529 1530 1530 1531 1531 1532 1532 1533 1533 1534 1535 1535 1536 1537 1537 1538 1539 1540 1541 1542 1543 1543 1544 1544 1545 1545 1545 1546 1545 1545 1545 1544 1544 1544 1544
1519 1521 1522 1523 1525 1526 1527 1528 1529 1529 1530 1531 1531 1531 1532 1533 1533 1534 1534 1535 1536 1537 1537 1538 1539 1540 1541 1542 1543 1544 1544 1545 1545 1546 1546 1546 1546 1546 1545 1545 1545 1544 1544
1518 1520 1521 1522 1524 1525 1526 1527 1528 1529 1530 1530 1531 1531 1532 1533 1533 1534 1534 1535 1535 1536 1537 1538 1539 1540 1541 1542 1543 1543 1544 1546 1546 1546 1546 1546 1546 1546 1546 1546 1545 1545 1544
1516 1518 1520 1521 1523 1524 1525 1526 1527 1528 1529 1530 1530 1531 1532 1532 1533 1533 1534 1535 1535 1536 1536 1537 1538 1539 1540 1541 1542 1544 1544 1544 1545 1546 1546 1546 1546 1546 1546 1546 1545 1545 1544
1514 1517 1519 1520 1521 1522 1523 1525 1526 1527 1528 1529 1529 1530 1531 1532 1532 1533 1533 1534 1535 1536 1536 1537 1537 1538 1539 1540 1541 1542 1543 1543 1544 1545 1546 1545 1545 1545 1545 1545 1545 1544 1544
1513 1515 1517 1519 1520 1521 1522 1523 1525 1526 1527 1528 1529 1529 1530 1531 1531 1532 1533 1533 1534 1535 1535 1536 1537 1538 1538 1539 1540 1541 1542 1542 1543 1543 1544 1544 1544 1544 1544 1544 1544 1544 1543
1510 1512 1515 1516 1518 1519 1520 1521 1523 1525 1526 1527 1528 1528 1529 1530 1530 1531 1532 1533 1533 1534 1534 1535 1536 1537 1537 1538 1539 1540 1540 1541 1541 1542 1542 1542 1543 1543 1543 1543 1543 1543 1542